#timestamp,LO_Frequency,Hit,StdDev 
1460077215.9,286047001.7,N
1460077235.7,286047002.1,N
1460077255.6,286047000.2,N
1460077275.4,286046999.8,N
1460077295.2,286047002.7,N
1460077315.1,286047000.6,N
1460077316.0,286047000.6,N
1460077335.8,286047002.7,N
1460077355.6,286047003.2,N
1460077375.4,286047003.6,N
1460077395.3,286047005.0,N
1460077415.1,286047004.9,N
1460077435.8,286047003.9,N
1460077455.7,286047002.3,N
1460077475.5,286047000.5,N
1460077495.3,286047003.3,N
1460077515.2,286047002.1,N
1460077535.9,286047004.4,N
1460077555.7,286047001.7,N
1460077575.6,286047001.9,N
1460077595.4,286047003.9,N
1460077615.2,286047001.7,N
1460077635.1,286047003.5,N
1460077636.0,286047003.5,N
1460077655.8,286047003.1,N
1460077675.6,286047003.5,N
1460077695.5,286047004.3,N
1460077715.3,286047004.1,N
1460077735.1,286047000.2,N
1460077755.8,286047000.6,N
1460077775.7,286047001.1,N
1460077795.5,286047002.3,N
1460077815.3,286046998.6,N
1460077835.2,286047000.4,N
1460077855.9,286047001.2,N
1460077875.7,286046998.7,N
1460077895.6,286047000.8,N
1460077915.4,286047000.6,N
1460077935.2,286047002.7,N
1460077955.1,286047000.1,N
1460077956.0,286047000.1,N
1460077975.8,286046999.4,N
1460077995.6,286047000.7,N
1460078015.5,286047001.1,N
1460078035.3,286046997.0,N
1460078055.1,286046999.1,N
1460078075.8,286046996.9,N
1460078095.7,286046999.1,N
1460078115.5,286046999.0,N
1460078135.3,286046996.8,N
1460078155.2,286046996.8,N
1460078175.9,286046997.1,N
1460078195.7,286046997.7,N
1460078215.6,286046997.2,N
1460078235.4,286046998.0,N
1460078255.2,286046995.8,N
1460078275.1,286046995.3,N
1460078276.0,286046995.3,N
1460078295.8,286046999.2,N
1460078315.6,286046997.6,N
1460078335.5,286046997.7,N
1460078355.3,286046995.0,N
1460078375.1,286046997.4,N
1460078395.9,286046994.0,Y
1460078415.7,286046995.3,P
1460078435.5,286046993.7,P
1460078455.4,286046997.4,N
1460078475.2,286046995.8,N
1460078495.0,286046995.2,N
1460078495.9,286046995.2,Y
1460078515.8,286046998.8,P
1460078535.6,286046998.4,N
1460078555.4,286046998.3,N
1460078575.2,286046998.8,N
1460078595.1,286046996.6,Y
1460078596.0,286046996.6,P
1460078615.8,286047002.2,N
1460078635.7,286047002.8,N
1460078655.5,286047000.7,N
1460078675.3,286047001.0,N
1460078695.1,286047002.3,N
1460078715.9,286047002.8,N
1460078735.7,286047004.4,N
1460078755.5,286047001.5,N
1460078775.4,286047003.7,N
1460078795.2,286047003.5,N
1460078815.0,286047000.7,N
1460078815.9,286047000.7,N
1460078835.8,286047002.7,N
1460078855.6,286046999.8,N
1460078875.4,286047002.4,N
1460078895.3,286047003.5,N
1460078915.1,286047004.1,N
1460078916.0,286047004.1,N
1460078935.8,286047005.1,N
1460078955.7,286047005.9,N
1460078975.5,286047009.5,Y
1460078995.3,286047008.3,P
1460079015.2,286047008.0,N
1460079035.9,286047006.8,N
1460079055.7,286047006.7,N
1460079075.6,286047009.5,Y
1460079095.4,286047003.1,P
1460079115.2,286047004.1,N
1460079135.0,286047006.3,P
1460079136.0,286047006.3,Y
1460079155.8,286047001.9,P
1460079175.6,286047003.3,N
1460079195.5,286047001.8,N
1460079215.3,286047000.6,N
1460079235.1,286046998.8,N
1460079255.8,286046997.4,N
1460079275.7,286046999.0,N
1460079295.5,286046995.8,N
1460079315.3,286046994.7,N
1460079335.2,286046990.5,Y
1460079355.0,286046993.2,P
1460079355.9,286046993.2,N
1460079375.7,286046989.7,P
1460079395.6,286046986.9,Y
1460079415.4,286046992.2,P
1460079435.2,286046992.0,P
1460079455.1,286046996.0,P
1460079456.0,286046996.0,N
1460079475.8,286046996.1,N
1460079495.7,286046993.9,Y
1460079515.5,286046999.0,P
1460079535.3,286046998.2,N
1460079555.1,286047000.4,N
1460079575.9,286047004.3,N
1460079595.7,286047004.0,N
1460079615.5,286047001.9,N
1460079635.4,286047000.5,N
1460079655.2,286047004.0,N
1460079675.0,286047001.7,N
1460079675.9,286047001.7,N
1460079695.8,286047001.4,N
1460079715.6,286047003.4,N
1460079735.4,286047001.9,N
1460079755.3,286047002.3,N
1460079775.1,286047000.0,N
1460079776.0,286047000.0,N
1460079795.8,286047001.7,N
1460079815.7,286047000.3,N
1460079835.5,286047002.0,N
1460079855.3,286047002.7,N
1460079875.1,286047001.8,N
1460079895.9,286047000.9,N
1460079915.7,286046998.4,N
1460079935.5,286047000.4,N
1460079955.4,286047001.2,N
1460079975.2,286047000.5,N
1460079995.0,286047000.7,N
1460079995.9,286047000.7,N
1460080015.8,286046998.7,N
1460080035.6,286047000.8,N
1460080055.4,286046996.6,N
1460080075.3,286046998.0,N
1460080095.1,286046999.6,N
1460080096.0,286046999.6,N
1460080115.8,286046999.2,N
1460080135.7,286046997.4,N
1460080155.5,286046996.7,N
1460080175.3,286047000.2,N
1460080195.2,286046998.6,N
1460080215.9,286046998.6,N
1460080235.7,286047000.6,N
1460080255.5,286047002.1,N
1460080275.4,286047000.4,N
1460080295.2,286047000.6,N
1460080315.0,286047003.9,N
1460080315.9,286047003.9,N
1460080335.8,286047004.3,N
1460080355.6,286047004.0,N
1460080375.4,286047004.3,N
1460080395.3,286047006.0,N
1460080415.1,286047004.5,N
1460080435.8,286047005.3,N
1460080455.7,286047004.9,N
1460080475.5,286047010.1,Y
1460080495.3,286047011.8,P
1460080515.2,286047012.1,N
1460080535.9,286047009.5,N
1460080555.7,286047010.2,N
1460080575.6,286047009.5,N
1460080595.4,286047011.7,Y
1460080615.2,286047001.4,P
1460080635.1,286047003.9,N
1460080636.0,286047003.9,N
1460080655.8,286047003.1,N
1460080675.6,286047005.5,N
1460080695.5,286047003.5,N
1460080715.3,286047005.7,N
1460080735.1,286047004.5,N
1460080755.8,286047002.9,N
1460080775.7,286047004.7,N
1460080795.5,286047006.3,Y
